#timestamp,LO_Frequency,Hit,StdDev 
1545836415.8,286046997.8,N
1545836435.6,286046997.5,N
1545836455.5,286046997.2,N
1545836475.3,286046997.1,N
1545836495.2,286046996.7,N
1545836515.9,286046997.8,N
1545836535.7,286046995.2,Y
1545836555.6,286046999.5,P
1545836575.4,286046997.2,P
1545836595.2,286046996.9,P
1545836615.1,286046995.5,Y
1545836616.0,286046995.5,P
1545836635.8,286046996.5,N
1545836655.7,286046996.6,P
1545836675.5,286046998.3,N
1545836695.3,286046997.0,N
1545836715.2,286046998.8,N
1545836735.0,286046998.1,N
1545836735.9,286046998.1,N
1545836755.8,286046998.8,N
1545836775.6,286046998.8,N
1545836795.4,286046998.3,N
1545836815.3,286047001.0,N
1545836835.1,286046998.8,N
1545836855.9,286046998.2,N
1545836875.7,286046997.8,N
1545836895.5,286046997.5,N
1545836915.4,286046996.9,N
1545836935.2,286046996.5,Y
1545836955.0,286047002.1,P
1545836955.9,286047002.1,N
1545836975.8,286047002.5,N
1545836995.6,286047002.4,N
1545837015.5,286046998.3,N
1545837035.3,286046999.1,N
1545837055.1,286046997.4,N
1545837075.9,286046997.4,N
1545837095.7,286046998.6,N
1545837115.5,286047001.0,N
1545837135.4,286047000.5,N
1545837155.2,286046999.8,N
1545837175.1,286046999.7,N
1545837176.0,286046999.7,N
1545837195.8,286046998.8,N
1545837215.6,286046998.8,N
1545837235.5,286046999.0,N
1545837255.3,286046998.9,N
1545837275.1,286046996.9,N
1545837295.9,286046999.6,N
1545837315.7,286046999.6,N
1545837335.6,286046998.8,N
1545837355.4,286046996.6,N
1545837375.2,286046996.6,N
1545837395.1,286047001.7,N
1545837396.0,286047001.7,N
1545837415.8,286047002.7,N
1545837435.7,286047000.3,N
1545837455.5,286047002.7,N
1545837475.3,286047002.7,N
1545837495.2,286047000.0,N
1545837515.0,286047003.8,N
1545837515.9,286047003.8,N
1545837535.7,286047003.8,N
1545837555.6,286047002.3,N
1545837575.4,286047002.4,N
1545837595.3,286047001.3,N
1545837615.1,286047000.8,N
1545837616.0,286047000.8,N
1545837635.8,286047000.9,N
1545837655.7,286046999.3,N
1545837675.5,286046996.5,N
1545837695.3,286046999.6,N
1545837715.2,286047001.0,N
1545837735.0,286046999.4,N
1545837735.9,286046999.4,N
1545837755.8,286046998.3,N
1545837775.6,286046998.3,N
1545837795.4,286046999.1,N
1545837815.3,286046998.7,N
1545837835.1,286046999.4,N
1545837855.9,286047001.2,N
1545837875.7,286047000.9,N
1545837895.5,286047000.2,N
1545837915.4,286047000.9,N
1545837935.2,286047002.3,N
1545837955.0,286047000.1,N
1545837955.9,286047000.1,N
1545837975.8,286047001.5,N
1545837995.6,286047002.0,N
1545838015.5,286047011.9,Y
1545838035.3,286047001.9,P
1545838055.1,286047001.6,N
1545838075.9,286047001.5,N
1545838095.7,286047001.4,N
1545838115.6,286047002.2,Y
1545838135.4,286047002.4,P
1545838155.2,286047001.1,N
1545838175.1,286046999.5,N
1545838176.0,286046999.5,N
1545838195.8,286046999.9,N
1545838215.6,286047000.2,N
1545838235.5,286046998.4,N
1545838255.3,286047001.2,N
1545838275.2,286046999.1,N
1545838295.9,286046996.8,N
1545838315.7,286046997.2,N
1545838335.6,286046997.3,N
1545838355.4,286047000.0,N
1545838375.3,286046998.1,N
1545838395.1,286046998.3,N
1545838396.0,286046998.3,N
1545838415.8,286046998.8,N
1545838435.7,286046998.3,N
1545838455.5,286047000.8,N
1545838475.3,286047002.1,N
1545838495.2,286047004.0,N
1545838515.0,286047001.7,N
1545838515.9,286047001.7,N
1545838535.8,286047003.5,N
1545838555.6,286047002.0,N
1545838575.4,286047002.2,N
1545838595.3,286046999.9,N
1545838615.1,286046998.4,N
1545838635.9,286046998.3,N
1545838655.7,286046999.3,N
1545838675.5,286046998.9,N
1545838695.4,286046999.4,N
1545838715.2,286047001.1,N
1545838735.0,286046999.2,N
1545838735.9,286046999.2,N
1545838755.8,286046999.2,N
1545838775.6,286046995.1,N
1545838795.5,286046997.8,N
1545838815.3,286046997.5,N
1545838835.1,286046997.3,N
1545838855.9,286046996.5,N
1545838875.7,286046997.4,N
1545838895.6,286046997.0,N
1545838915.4,286046995.4,N
1545838935.2,286046993.9,N
1545838955.1,286046996.0,N
1545838956.0,286046996.0,N
1545838975.8,286046997.8,N
1545838995.6,286046998.0,N
1545839015.5,286046997.4,N
1545839035.3,286046995.9,N
1545839055.2,286046994.0,N
1545839075.9,286046993.6,N
1545839095.7,286046993.8,N
1545839115.6,286046996.0,N
1545839135.4,286046993.7,N
1545839155.3,286046992.3,Y
1545839175.1,286046996.0,P
1545839176.0,286046996.0,P
1545839195.8,286046995.2,P
1545839215.7,286046995.7,Y
1545839235.5,286047001.1,P
1545839255.3,286046998.5,N
1545839275.2,286047000.5,N
1545839295.0,286046998.4,N
1545839295.9,286046998.4,N
1545839315.8,286046999.7,N
1545839335.6,286047001.5,N
1545839355.4,286046999.9,N
1545839375.3,286047000.6,N
1545839395.1,286047000.9,N
1545839415.9,286047000.7,N
1545839435.7,286046999.7,N
1545839455.5,286046999.9,N
1545839475.4,286046999.8,N
1545839495.2,286046999.8,N
1545839515.0,286047004.4,Y
1545839515.9,286047004.4,P
1545839535.8,286047001.6,N
1545839555.6,286047004.0,N
1545839575.5,286047002.5,N
1545839595.3,286046999.8,N
1545839615.1,286047002.7,N
1545839635.9,286047001.9,N
1545839655.7,286047003.9,N
1545839675.5,286047001.7,N
1545839695.4,286047001.9,N
1545839715.2,286047000.1,N
1545839735.1,286047000.4,N
1545839736.0,286047000.4,N
1545839755.8,286046998.2,N
1545839775.6,286046998.1,N
1545839795.5,286047000.8,N
1545839815.3,286047000.9,N
1545839835.2,286046998.3,N
1545839855.9,286046998.3,N
1545839875.7,286047001.1,N
1545839895.6,286046998.1,N
1545839915.4,286046998.1,N
1545839935.2,286047000.3,N
1545839955.1,286047000.8,N
1545839956.0,286047000.8,N
1545839975.8,286046999.8,N
1545839995.7,286047002.3,N
